Regional Weather Roundup
Issued by NWS

Home | Current Version | Previous Version | Graphics & Text | Print | Product List | Glossary On
Versions: 1 2 3 4 5 6 7 8 9 10 11 12 13 14 15 16 17 18 19 20 21 22 23 24 25 26 27 28 29 30 31 32 33 34 35 36 37 38 39 40 41 42 43 44 45 46 47 48 49 50
000
ASUS45 KCYS 220910
RWRWY

WYOMING REGIONAL WEATHER ROUNDUP
NATIONAL WEATHER SERVICE CHEYENNE WY
200 AM MST SAT NOV 22 2014

NOTE:  "FAIR" INDICATES FEW OR NO CLOUDS BELOW 12,000 FEET
WITH NO SIGNIFICANT WEATHER AND/OR OBSTRUCTIONS TO VISIBILITY.

WYZ001-221000-
YELLOWSTONE NATIONAL PARK

CITY           SKY/WX    TMP DP  RH WIND       PRES   REMARKS
LK YELLOWSTONE   N/A     27  24  89 VRB3      29.83F
W YELLOWSTONE  NOT AVBL

$$
WYZ002>013-054>058-071-098>099-221000-
NORTHERN WYOMING

CITY           SKY/WX    TMP DP  RH WIND       PRES   REMARKS
JACKSON        CLOUDY    30  28  93 SW8       29.88S WCI  23
CODY           MOCLDY    45  21  39 W12G25    29.63F
GREYBULL       CLOUDY    14  11  87 CALM      29.69F
WORLAND        CLOUDY    17  14  88 CALM      29.66F
SHERIDAN       MOCLDY    25  19  78 CALM      29.57F
BUFFALO        MOCLDY    31  17  56 CALM      29.60F
GILLETTE       CLEAR     37  24  59 SW21      29.61F WCI  26
HULETT           N/A    N/A N/A N/A MISG        N/A
NEWCASTLE      FAIR      30  21  69 E6        29.73F WCI  24

$$
WYZ014>020-022>026-101>103-221000-
CENTRAL WYOMING

CITY           SKY/WX    TMP DP  RH WIND       PRES   REMARKS
BIG PINEY      MOCLDY    17  13  84 E5        29.92F WCI  10
PINEDALE       CLOUDY    19  18  93 CALM      29.93F
DUBOIS         FAIR      32  19  59 N30G43    29.74F WCI  18
LANDER         NOT AVBL
RIVERTON       CLOUDY    25  18  74 SW5       29.73F WCI  19
CASPER         PTCLDY    37  20  50 SW25      29.74F WCI  25
DOUGLAS        CLEAR     51  20  29 SW8       29.77F

$$
WYZ021-027>030-104>119-221000-
SOUTHERN WYOMING

CITY           SKY/WX    TMP DP  RH WIND       PRES   REMARKS
EVANSTON       PTCLDY    32  21  64 SW10      29.95F WCI  24
KEMMERER       CLOUDY    28  21  74 SW5       29.93F WCI  23
FORT BRIDGER   PTSUNNY   35  23  62 SW13      29.96F WCI  26
ROCK SPRINGS   PTCLDY    30  17  58 W14       29.94F WCI  19
DIXON          FAIR      24  18  78 CALM      30.02S
RAWLINS        CLEAR     34  17  50 W15G26    29.91S WCI  24
SARATOGA       FAIR      30  19  64 SW10      29.95R WCI  21
LARAMIE        CLEAR     30  15  53 SW13      29.89F WCI  20
CHEYENNE       CLEAR     30  16  56 SW7       29.87F WCI  23
TORRINGTON     CLEAR     20  16  84 E7        29.81F WCI  11
PINE BLUFFS    FAIR      25  18  74 W3        29.87F

$$



USA.gov is the U.S. government's official web portal to all federal, state and local government web resources and services.